STARLINK-36968, 67995

Orbit data source: Space-Track

STARLINK-36968, 67995 is a payload satellite owned by SpaceX/Seattle (US) in LEO that was launched on Fri, 27 Feb 2026 UTC via an FALCON 9 launch vehicle from the Air Force Eastern Test Range (AFETR). Payload-class satellites include a variety of spacecraft equipped with specific instruments for various scientific and technological missions. These include communications satellites like Starlink; space stations such as the ISS; scientific satellites like the Hubble; Earth observation satellites from companies like Planet Labs, Umbra, and HawkEye 360; GPS; miniature CubeSats for education and research; and military/defense satellites.

Loading next visibility...
Identifier
67995, 2026-039K
Orbit
LEO
Country
Flag of USUS
Related business
Manufacturer
SpaceX/Seattle
Mission
Operational Commercial Communications
Bus & Motor
STARLINK V2MO, Unknown motor
Mass
575 kg wet, ~530 kg dry
Launch date (UTC)
2026-02-27 (2 months ago)
Launch vehicle
FALCON 9
Launch site
Air Force Eastern Test Range (AFETR)
Object type
Payload
Rocket body
Debris
Shape & HBR
Box + 2 Pan, 17.7 m
Radar Cross Section
36.964 m²

Expand to show TLE details & history
Last TLE update: 9 hours ago

TLE from 9 hours ago
0 STARLINK-36968
1 67995U 26039K   26119.28180304  .00013326  00000-0  49281-3 0  9993
2 67995  43.0006 122.9834 0001097 245.2404 114.8334 15.27585865  9441
Epoch: 2026-04-29T06:45Z
TLE epoch observation values (Epoch: 2026-04-29T06:45:47.782Z)
Latitude
Longitude
164.28931°
Altitude
483.123 km
Speed
7.625 km/s
True Right ascension
08h 11m 56s
True Declination
0° 00' 00"
Sunlit
Object was in daylight at epoch
Visualization orbit readout
Latitude
Unknown
Longitude
Unknown
Altitude
Unknown
Speed
Unknown
Apparent Right ascension
Unknown
Apparent Declination
Unknown
Sunlit
N/A
Visualization observer readout
Local Sidereal Time
22:53:13
Azimuth
Unknown
Elevation
Unknown
Doppler factor
Unknown
Orbital elements
Apogee altitude
485.729 km
Perigee altitude
484.224 km
Semi-major axis
6,863.114 km
Eccentricity
0.00011
Inclination
43.0006°
RAAN
122.9834°
Arg. of periapsis
245.2404°
True anomaly
114.84481°
Mean anomaly
114.8334°
Eccentric anomaly
114.8391°
Mean motion
3.81734 °/min
Orbital period
94.31 mins
BSTAR
0.00049281
Loading maneuver chart data...
Computing Atmospheric mass density...
Loading historical data...
Loading historical data...
Loading historical data...
Loading historical data...
Loading historical data...
Loading historical data...
Loading historical data...

Documentation

Showing up to 5 results
|